| time (UTC) | temp C | wind direction | speed KPH | gust KPH | rain 1hr cm | rain 24hr cm | rain mn cm | humidity % | barometer mb |
| 20260903013011 | 15 | 198 | 0.0 | 0.0 | 0.00 | 0.03 | 0.00 | 76 | 1019.1 |
| 20260903011509 | 15 | 198 | 0.0 | 0.0 | 0.00 | 0.03 | 0.00 | 77 | 1019.3 |
| 20260903010007 | 15 | 198 | 0.0 | 0.0 | 0.00 | 0.03 | 0.00 | 77 | 1019.4 |
| 20260903004510 | 15 | 198 | 0.0 | 0.0 | 0.00 | 0.03 | 0.00 | 78 | 1019.5 |
| 20260903003006 | 15 | 198 | 0.0 | 0.0 | 0.00 | 0.03 | 0.00 | 79 | 1019.5 |
| 20260903001503 | 15 | 198 | 0.0 | 0.0 | 0.00 | 0.03 | 0.00 | 79 | 1019.6 |
| 20260903000003 | 15 | 198 | 0.0 | 0.0 | 0.00 | 0.03 | 0.00 | 80 | 1019.7 |
| 20260902234501 | 15 | 198 | 0.0 | 0.0 | 0.00 | 0.03 | 0.00 | 80 | 1019.8 |
| 20260902233059 | 15 | 198 | 0.0 | 0.0 | 0.00 | 0.03 | 0.00 | 80 | 1020.0 |
| 20260902231557 | 15 | 198 | 0.0 | 0.0 | 0.00 | 0.03 | 0.00 | 80 | 1020.0 |
| 20260902230056 | 15 | 198 | 0.0 | 0.0 | 0.00 | 0.03 | 0.00 | 80 | 1020.1 |
| 20260902224554 | 15 | 198 | 0.0 | 0.0 | 0.00 | 0.03 | 0.00 | 80 | 1020.0 |
| 20260902223055 | 15 | 198 | 0.0 | 0.0 | 0.00 | 0.03 | 0.00 | 79 | 1020.2 |
| 20260902221605 | 16 | 198 | 0.0 | 0.0 | 0.00 | 0.03 | 0.00 | 79 | 1020.1 |
| 20260902220055 | 16 | 199 | 0.0 | 0.0 | 0.00 | 0.03 | 0.03 | 78 | 1020.2 |
| 20260902214549 | 16 | 199 | 0.0 | 0.0 | 0.00 | 0.03 | 0.03 | 78 | 1020.1 |
| 20260902213050 | 16 | 199 | 0.0 | 0.0 | 0.00 | 0.03 | 0.03 | 78 | 1020.1 |
| 20260902211602 | 16 | 199 | 0.0 | 0.0 | 0.00 | 0.03 | 0.03 | 77 | 1020.1 |
| 20260902210054 | 17 | 199 | 0.0 | 0.0 | 0.00 | 0.03 | 0.03 | 77 | 1020.2 |
| 20260902204548 | 17 | 199 | 0.0 | 0.0 | 0.00 | 0.03 | 0.03 | 77 | 1020.2 |
| 20260902203047 | 17 | 199 | 0.0 | 0.0 | 0.00 | 0.03 | 0.03 | 76 | 1020.2 |
| 20260902201603 | 17 | 199 | 0.0 | 0.0 | 0.00 | 0.03 | 0.03 | 75 | 1020.1 |
| 20260902200047 | 18 | 199 | 0.0 | 0.0 | 0.00 | 0.03 | 0.03 | 73 | 1020.3 |
| 20260902194545 | 18 | 199 | 0.0 | 0.0 | 0.00 | 0.03 | 0.03 | 71 | 1020.3 |
| 20260902193043 | 18 | 199 | 0.0 | 0.0 | 0.00 | 0.03 | 0.03 | 68 | 1020.3 |
| 20260902191547 | 19 | 199 | 0.0 | 0.0 | 0.00 | 0.03 | 0.03 | 64 | 1020.3 |
| 20260902190043 | 19 | 199 | 0.0 | 0.0 | 0.00 | 0.03 | 0.03 | 62 | 1020.1 |
| 20260902184543 | 19 | 199 | 0.0 | 0.0 | 0.00 | 0.03 | 0.03 | 61 | 1020.1 |
| 20260902183050 | 20 | 199 | 0.0 | 0.0 | 0.00 | 0.03 | 0.03 | 60 | 1020.0 |
| 20260902181542 | 20 | 199 | 0.0 | 0.0 | 0.00 | 0.03 | 0.03 | 59 | 1019.9 |
| 20260902180046 | 20 | 199 | 0.0 | 0.0 | 0.00 | 0.03 | 0.03 | 57 | 1019.7 |
| 20260902174540 | 21 | 199 | 0.0 | 0.0 | 0.00 | 0.03 | 0.03 | 54 | 1019.5 |
| 20260902173040 | 21 | 199 | 0.0 | 0.0 | 0.00 | 0.03 | 0.03 | 52 | 1019.5 |
| 20260902171540 | 21 | 199 | 0.0 | 0.0 | 0.00 | 0.03 | 0.03 | 50 | 1019.6 |
| 20260902170039 | 22 | 199 | 0.0 | 0.0 | 0.00 | 0.03 | 0.03 | 50 | 1019.6 |
| 20260902164549 | 22 | 200 | 0.0 | 0.0 | 0.00 | 0.03 | 0.03 | 50 | 1019.6 |
| 20260902163038 | 22 | 198 | 0.0 | 0.0 | 0.00 | 0.03 | 0.03 | 49 | 1019.6 |
| 20260902161535 | 22 | 223 | 0.0 | 0.0 | 0.00 | 0.03 | 0.03 | 52 | 1019.7 |
| 20260902160035 | 22 | 209 | 0.0 | 0.0 | 0.00 | 0.03 | 0.03 | 53 | 1019.7 |
| 20260902154537 | 22 | 233 | 0.0 | 0.0 | 0.00 | 0.03 | 0.03 | 54 | 1019.7 |
| 20260902153037 | 21 | 235 | 0.0 | 0.0 | 0.00 | 0.03 | 0.03 | 55 | 1019.9 |
| 20260902151530 | 21 | 235 | 0.0 | 0.0 | 0.00 | 0.03 | 0.03 | 56 | 1019.9 |
| 20260902150030 | 21 | 235 | 0.0 | 0.0 | 0.00 | 0.03 | 0.03 | 54 | 1019.9 |
| 20260902144530 | 22 | 235 | 0.0 | 0.0 | 0.00 | 0.03 | 0.03 | 53 | 1020.0 |
| 20260902143028 | 22 | 240 | 0.0 | 0.0 | 0.00 | 0.03 | 0.03 | 55 | 1020.0 |
| 20260902141527 | 21 | 257 | 0.0 | 0.0 | 0.00 | 0.03 | 0.03 | 54 | 1020.2 |
| 20260902140033 | 21 | 202 | 0.0 | 0.0 | 0.00 | 0.03 | 0.03 | 57 | 1020.1 |
| 20260902134524 | 21 | 244 | 0.0 | 0.0 | 0.00 | 0.03 | 0.03 | 57 | 1020.1 |
| 20260902133024 | 21 | 207 | 0.0 | 0.0 | 0.00 | 0.03 | 0.03 | 59 | 1020.2 |
| 20260902131527 | 21 | 212 | 0.0 | 0.0 | 0.00 | 0.03 | 0.03 | 58 | 1020.3 |
| 20260902130022 | 21 | 188 | 0.0 | 0.0 | 0.00 | 0.03 | 0.03 | 59 | 1020.3 |
| 20260902124526 | 21 | 198 | 0.0 | 0.0 | 0.00 | 0.03 | 0.03 | 59 | 1020.3 |
| 20260902123021 | 21 | 203 | 0.0 | 0.0 | 0.00 | 0.03 | 0.03 | 58 | 1020.5 |
| 20260902121520 | 21 | 232 | 0.0 | 0.0 | 0.00 | 0.03 | 0.03 | 59 | 1020.4 |
| 20260902120021 | 21 | 194 | 0.0 | 8.0 | 0.00 | 0.03 | 0.03 | 57 | 1020.3 |
| 20260902114518 | 21 | 233 | 0.0 | 0.0 | 0.00 | 0.03 | 0.03 | 58 | 1020.4 |
| 20260902113017 | 20 | 233 | 0.0 | 0.0 | 0.00 | 0.03 | 0.03 | 57 | 1020.5 |
| 20260902111516 | 21 | 210 | 0.0 | 0.0 | 0.00 | 0.03 | 0.03 | 57 | 1020.5 |
| 20260902110013 | 20 | 219 | 0.0 | 0.0 | 0.00 | 0.03 | 0.03 | 56 | 1020.5 |
| 20260902104512 | 20 | 239 | 0.0 | 0.0 | 0.00 | 0.03 | 0.03 | 58 | 1020.6 |
| 20260902103009 | 20 | 205 | 0.0 | 0.0 | 0.00 | 0.03 | 0.03 | 60 | 1020.6 |
| 20260902101518 | 20 | 196 | 0.0 | 0.0 | 0.00 | 0.03 | 0.03 | 60 | 1020.7 |
| 20260902100006 | 20 | 207 | 0.0 | 0.0 | 0.00 | 0.03 | 0.03 | 61 | 1020.6 |
| 20260902094505 | 20 | 212 | 0.0 | 0.0 | 0.00 | 0.03 | 0.03 | 62 | 1020.6 |
| 20260902093001 | 19 | 200 | 0.0 | 0.0 | 0.00 | 0.03 | 0.03 | 64 | 1020.6 |
| 20260902091600 | 19 | 207 | 0.0 | 0.0 | 0.00 | 0.03 | 0.03 | 65 | 1020.6 |
| 20260902084558 | 19 | 203 | 0.0 | 0.0 | 0.00 | 0.03 | 0.03 | 69 | 1020.6 |
| 20260902083053 | 18 | 203 | 0.0 | 0.0 | 0.03 | 0.03 | 0.03 | 74 | 1020.7 |
| 20260902081608 | 18 | 204 | 0.0 | 0.0 | 0.03 | 0.03 | 0.03 | 76 | 1020.6 |
| 20260902080044 | 17 | 202 | 0.0 | 0.0 | 0.03 | 0.03 | 0.03 | 80 | 1020.6 |
| 20260902074538 | 16 | 202 | 0.0 | 0.0 | 0.03 | 0.03 | 0.03 | 80 | 1020.5 |
| 20260902073035 | -17 | 0.0 | 0.0 | 0.00 | 0.00 | 0.00 | 1020.4 | ||
| 20260902071535 | -17 | 0.0 | 0.0 | 0.00 | 0.00 | 0.00 | 1020.4 | ||
| 20260902070024 | -17 | 0.0 | 0.0 | 0.00 | 0.00 | 0.00 | 1020.4 | ||
| 20260902064520 | -17 | 0.0 | 0.0 | 0.00 | 0.00 | 0.00 | 1020.3 | ||
| 20260902063022 | -17 | 0.0 | 0.0 | 0.00 | 0.00 | 0.00 | 1020.2 | ||
| 20260902061529 | -17 | 0.0 | 0.0 | 0.00 | 0.00 | 0.00 | 1020.3 | ||
| 20260902060007 | -17 | 0.0 | 0.0 | 0.00 | 0.00 | 0.00 | 1020.1 | ||
| 20260902054503 | 13 | 202 | 0.0 | 0.0 | 0.00 | 0.00 | 0.00 | 77 | 1019.8 |
| 20260902053004 | 13 | 202 | 0.0 | 0.0 | 0.00 | 0.00 | 0.00 | 77 | 1019.8 |
| 20260902051501 | 13 | 202 | 0.0 | 0.0 | 0.00 | 0.00 | 0.00 | 77 | 1019.6 |
| 20260902050111 | 13 | 202 | 0.0 | 0.0 | 0.00 | 0.00 | 0.00 | 77 | 1019.6 |
| 20260902044609 | 13 | 202 | 0.0 | 0.0 | 0.00 | 0.00 | 0.00 | 77 | 1019.5 |
| 20260902043059 | 13 | 202 | 0.0 | 0.0 | 0.00 | 0.00 | 0.00 | 77 | 1019.5 |
| 20260902041559 | 13 | 202 | 0.0 | 0.0 | 0.00 | 0.00 | 0.00 | 77 | 1019.6 |
| 20260902040109 | 13 | 202 | 0.0 | 0.0 | 0.00 | 0.00 | 0.00 | 77 | 1019.7 |
| 20260902034603 | 13 | 202 | 0.0 | 0.0 | 0.00 | 0.00 | 0.00 | 77 | 1019.6 |
| 20260902033106 | 13 | 202 | 0.0 | 0.0 | 0.00 | 0.00 | 0.00 | 77 | 1019.6 |
| 20260902031556 | 13 | 202 | 0.0 | 0.0 | 0.00 | 0.00 | 0.00 | 77 | 1019.6 |
| 20260902030055 | 13 | 202 | 0.0 | 0.0 | 0.00 | 0.00 | 0.00 | 77 | 1019.6 |
| 20260902024603 | 12 | 202 | 0.0 | 0.0 | 0.00 | 0.00 | 0.00 | 76 | 1019.9 |
| 20260902023058 | 12 | 202 | 0.0 | 0.0 | 0.00 | 0.00 | 0.00 | 76 | 1020.0 |
| 20260902021555 | 13 | 202 | 0.0 | 0.0 | 0.00 | 0.00 | 0.00 | 76 | 1020.2 |
| 20260902020052 | 12 | 202 | 0.0 | 0.0 | 0.00 | 0.00 | 0.00 | 76 | 1020.1 |
| 20260902014550 | 12 | 202 | 0.0 | 0.0 | 0.00 | 0.00 | 0.00 | 77 | 1019.8 |